When you browse on this site, cookies collect data to enhance your experience and personalize the content and advertising you see.
Visit our Privacy Policy to learn more. By continuing to use the site, you agree to this use of cookies and data.
  • En España
  • Lista de países
  • Para 7 días
  • Temperatura del agua
  • Mapa Satelital
  • El tiempo en el mapa
  • Informadores
  • user-avatar
    Iniciar sesión

    Tiempo cada hora Vlasova Sloboda

    Hoy, 17 Julio, Miércoles

    Tiempo Temperatura Precipitaciones Viento Presión Humedad
    00:00 +12°C° 0 mm 1 mps 738 mmHg 89%
    01:00 +11°C° 0 mm 1 mps 737 mmHg 89%
    02:00 +12°C° 0 mm 1 mps 737 mmHg 90%
    03:00 +12°C° 0 mm 1 mps 737 mmHg 90%
    04:00 +12°C° 0 mm 2 mps 737 mmHg 89%
    05:00 +13°C° 0 mm 2 mps 737 mmHg 88%
    06:00 +13°C° 0.3 mm 2 mps 737 mmHg 89%
    07:00 +14°C° 0.3 mm 1 mps 737 mmHg 89%
    08:00 +13°C° 0 mm 0 mps 737 mmHg 90%
    09:00 +15°C° 0.2 mm 1 mps 737 mmHg 88%
    10:00 +16°C° 0.2 mm 1 mps 737 mmHg 87%
    11:00 +17°C° 0.2 mm 2 mps 737 mmHg 85%
    12:00 +17°C° 0.2 mm 2 mps 736 mmHg 84%
    13:00 +17°C° 0.2 mm 3 mps 736 mmHg 83%
    14:00 +18°C° 0.2 mm 3 mps 736 mmHg 82%
    15:00 +18°C° 0.1 mm 2 mps 736 mmHg 81%
    16:00 +18°C° 0.1 mm 2 mps 736 mmHg 80%
    17:00 +18°C° 0.1 mm 2 mps 736 mmHg 79%
    18:00 +18°C° 0.1 mm 1 mps 736 mmHg 81%
    19:00 +16°C° 0.1 mm 1 mps 735 mmHg 82%
    20:00 +16°C° 0.1 mm 1 mps 735 mmHg 83%
    21:00 +15°C° 0.1 mm 1 mps 735 mmHg 84%
    22:00 +15°C° 0.1 mm 1 mps 735 mmHg 85%
    23:00 +14°C° 0.1 mm 1 mps 735 mmHg 85%

    Mañana, 18 Julio, Jueves

    Tiempo Temperatura Precipitaciones Viento Presión Humedad
    00:00 +14°C° 0.2 mm 1 mps 735 mmHg 87%
    01:00 +14°C° 0.2 mm 2 mps 735 mmHg 88%
    02:00 +14°C° 0.2 mm 2 mps 735 mmHg 90%
    03:00 +14°C° 0.1 mm 1 mps 735 mmHg 91%
    04:00 +14°C° 0.1 mm 1 mps 735 mmHg 92%
    05:00 +14°C° 0.1 mm 1 mps 735 mmHg 93%
    06:00 +14°C° 0.4 mm 1 mps 735 mmHg 92%
    07:00 +15°C° 0.4 mm 2 mps 735 mmHg 91%
    08:00 +16°C° 0.4 mm 2 mps 735 mmHg 90%
    09:00 +16°C° 0.7 mm 3 mps 735 mmHg 92%
    10:00 +14°C° 0.7 mm 3 mps 735 mmHg 93%
    11:00 +14°C° 0.7 mm 4 mps 735 mmHg 95%
    12:00 +14°C° 0.3 mm 4 mps 735 mmHg 94%
    13:00 +14°C° 0.3 mm 4 mps 735 mmHg 94%
    14:00 +14°C° 0.3 mm 4 mps 735 mmHg 94%
    15:00 +14°C° 0.3 mm 4 mps 735 mmHg 94%
    16:00 +16°C° 0.3 mm 3 mps 735 mmHg 93%
    17:00 +16°C° 0.3 mm 3 mps 735 mmHg 93%
    18:00 +16°C° 0.3 mm 3 mps 735 mmHg 94%
    19:00 +14°C° 0.3 mm 3 mps 735 mmHg 96%
    20:00 +14°C° 0.3 mm 3 mps 735 mmHg 97%
    21:00 +13°C° 0.2 mm 3 mps 736 mmHg 97%
    22:00 +13°C° 0.2 mm 3 mps 736 mmHg 97%
    23:00 +13°C° 0.2 mm 3 mps 736 mmHg 96%

    Pasado mañana, 19 Julio, Viernes

    Tiempo Temperatura Precipitaciones Viento Presión Humedad
    00:00 +13°C° 0.3 mm 4 mps 736 mmHg 97%
    01:00 +14°C° 0.3 mm 4 mps 736 mmHg 97%
    02:00 +14°C° 0.3 mm 5 mps 736 mmHg 97%
    03:00 +14°C° 0.2 mm 5 mps 736 mmHg 97%
    04:00 +14°C° 0.2 mm 5 mps 736 mmHg 96%
    05:00 +14°C° 0.2 mm 6 mps 737 mmHg 96%
    06:00 +14°C° 0 mm 6 mps 737 mmHg 95%
    07:00 +14°C° 0 mm 6 mps 737 mmHg 93%
    08:00 +14°C° 0 mm 6 mps 738 mmHg 92%
    09:00 +15°C° 0.1 mm 6 mps 738 mmHg 90%
    10:00 +16°C° 0.1 mm 6 mps 738 mmHg 87%
    11:00 +16°C° 0.1 mm 6 mps 739 mmHg 85%
    12:00 +17°C° 0.7 mm 6 mps 739 mmHg 84%
    13:00 +17°C° 0.7 mm 6 mps 739 mmHg 83%
    14:00 +18°C° 0.7 mm 7 mps 739 mmHg 83%
    15:00 +19°C° 0.3 mm 6 mps 740 mmHg 83%
    16:00 +17°C° 0.3 mm 6 mps 740 mmHg 83%
    17:00 +17°C° 0.3 mm 5 mps 740 mmHg 83%
    18:00 +17°C° 0.1 mm 4 mps 740 mmHg 86%
    19:00 +15°C° 0.1 mm 4 mps 741 mmHg 89%
    20:00 +16°C° 0.1 mm 3 mps 741 mmHg 91%
    21:00 +14°C° 0 mm 3 mps 741 mmHg 92%
    22:00 +14°C° 0 mm 4 mps 741 mmHg 92%
    23:00 +13°C° 0 mm 4 mps 742 mmHg 93%

    20 Julio, Sábado

    Tiempo Temperatura Precipitaciones Viento Presión Humedad
    00:00 +13°C° 0 mm 4 mps 742 mmHg 93%
    01:00 +13°C° 0 mm 4 mps 742 mmHg 94%
    02:00 +12°C° 0 mm 4 mps 742 mmHg 94%
    03:00 +12°C° 0 mm 4 mps 742 mmHg 94%
    04:00 +12°C° 0 mm 4 mps 742 mmHg 94%
    05:00 +12°C° 0 mm 3 mps 743 mmHg 94%
    06:00 +13°C° 0 mm 4 mps 743 mmHg 90%
    07:00 +15°C° 0 mm 4 mps 743 mmHg 85%
    08:00 +17°C° 0 mm 4 mps 743 mmHg 81%
    09:00 +17°C° 0.2 mm 5 mps 744 mmHg 78%
    10:00 +19°C° 0.2 mm 5 mps 744 mmHg 75%
    11:00 +20°C° 0.2 mm 6 mps 744 mmHg 73%
    12:00 +21°C° 0.4 mm 5 mps 744 mmHg 73%
    13:00 +21°C° 0.4 mm 5 mps 745 mmHg 73%
    14:00 +21°C° 0.4 mm 5 mps 745 mmHg 74%
    15:00 +21°C° 0.6 mm 5 mps 745 mmHg 77%
    16:00 +20°C° 0.6 mm 4 mps 745 mmHg 80%
    17:00 +20°C° 0.6 mm 4 mps 745 mmHg 83%
    18:00 +19°C° 0.1 mm 3 mps 745 mmHg 86%
    19:00 +18°C° 0.1 mm 3 mps 745 mmHg 88%
    20:00 +17°C° 0.1 mm 2 mps 745 mmHg 91%
    21:00 +16°C° 0 mm 2 mps 746 mmHg 91%
    22:00 +15°C° 0 mm 2 mps 746 mmHg 92%
    23:00 +15°C° 0 mm 2 mps 746 mmHg 93%

    21 Julio, Domingo

    Tiempo Temperatura Precipitaciones Viento Presión Humedad
    00:00 +14°C° 0 mm 2 mps 746 mmHg 93%
    01:00 +14°C° 0 mm 2 mps 746 mmHg 94%
    02:00 +13°C° 0 mm 2 mps 746 mmHg 95%
    03:00 +13°C° 0 mm 2 mps 746 mmHg 95%
    04:00 +13°C° 0 mm 2 mps 746 mmHg 95%
    05:00 +13°C° 0 mm 2 mps 747 mmHg 96%
    06:00 +15°C° 0 mm 2 mps 747 mmHg 91%
    07:00 +16°C° 0 mm 2 mps 747 mmHg 87%
    08:00 +18°C° 0 mm 2 mps 747 mmHg 83%
    09:00 +19°C° 0 mm 2 mps 747 mmHg 77%
    10:00 +20°C° 0 mm 2 mps 747 mmHg 71%
    11:00 +21°C° 0 mm 3 mps 747 mmHg 65%
    12:00 +22°C° 0 mm 3 mps 747 mmHg 64%
    13:00 +22°C° 0 mm 3 mps 747 mmHg 64%
    14:00 +23°C° 0 mm 4 mps 747 mmHg 63%
    15:00 +22°C° 0 mm 3 mps 747 mmHg 66%
    16:00 +22°C° 0 mm 3 mps 747 mmHg 68%
    17:00 +22°C° 0 mm 3 mps 747 mmHg 70%
    18:00 +20°C° 0 mm 3 mps 747 mmHg 75%
    19:00 +19°C° 0 mm 2 mps 747 mmHg 80%
    20:00 +17°C° 0 mm 2 mps 747 mmHg 85%
    21:00 +16°C° 0 mm 1 mps 747 mmHg 86%
    22:00 +16°C° 0 mm 1 mps 747 mmHg 87%
    23:00 +15°C° 0 mm 1 mps 747 mmHg 88%

    22 Julio, Lunes

    Tiempo Temperatura Precipitaciones Viento Presión Humedad
    00:00 +14°C° 0 mm 1 mps 747 mmHg 89%
    01:00 +14°C° 0 mm 1 mps 747 mmHg 90%
    02:00 +14°C° 0 mm 1 mps 747 mmHg 91%
    03:00 +14°C° 0 mm 1 mps 747 mmHg 91%
    04:00 +14°C° 0 mm 1 mps 747 mmHg 92%
    05:00 +14°C° 0 mm 1 mps 746 mmHg 92%
    06:00 +15°C° 0 mm 1 mps 747 mmHg 87%
    07:00 +18°C° 0 mm 1 mps 747 mmHg 82%
    08:00 +19°C° 0 mm 2 mps 747 mmHg 77%
    09:00 +20°C° 0 mm 2 mps 747 mmHg 72%
    10:00 +22°C° 0 mm 1 mps 747 mmHg 67%
    11:00 +23°C° 0 mm 1 mps 747 mmHg 62%
    12:00 +24°C° 0 mm 1 mps 747 mmHg 59%
    13:00 +24°C° 0 mm 1 mps 746 mmHg 57%
    14:00 +25°C° 0 mm 1 mps 746 mmHg 54%
    15:00 +25°C° 0 mm 2 mps 746 mmHg 57%
    16:00 +25°C° 0 mm 2 mps 746 mmHg 60%
    17:00 +24°C° 0 mm 2 mps 746 mmHg 64%
    18:00 +23°C° 0 mm 2 mps 746 mmHg 67%
    19:00 +20°C° 0 mm 2 mps 746 mmHg 70%
    20:00 +18°C° 0 mm 2 mps 746 mmHg 74%
    21:00 +17°C° 0 mm 2 mps 746 mmHg 77%
    22:00 +16°C° 0 mm 2 mps 746 mmHg 80%
    23:00 +15°C° 0 mm 2 mps 746 mmHg 83%
    Mostrar más